Location: Ikejouine
(32.5142°N, 5.4699°W)
Time: 18:34:36
(UTC+00:00)

SJ-11-01 - Pass Details

Date: 09 April 2020
Orbit: 684 x 701 km, 98.0° (Epoch: 28 May)

Event Time Altitude Azimuth Distance (km) Brightness Sun altitude
Rises 19:41:48 0° 165° (SSE) 3,048 7.3 -11.9°
Reaches altitude 10° 19:44:01 10° 164° (SSE) 2,138 6.5 -12.3°
Maximum altitude 19:48:42 83° 78° (ENE) 705 4.2 -13.3°
Drops below altitude 10° 19:53:27 10° 350° (N) 2,162 7.2 -14.2°
Sets 19:55:43 0° 349° (N) 3,085 8.1 -14.7°
